• In Hungary
  • List of Countries
  • For 7 days
  • Water Temperature
  • Satellite Maps
  • Weather Map
  • News
  • Weather Widgets
  • user-avatar
    Login

    Hourly Weather Volchischevo

    Today, 20 August, Monday

    Time Temperature Precipitation Wind Pressure Humidity
    00:00 +15°C° 0 mm 2 mps 744 mmHg 93%
    01:00 +15°C° 0 mm 1 mps 744 mmHg 94%
    02:00 +14°C° 0 mm 1 mps 744 mmHg 95%
    03:00 +14°C° 0 mm 1 mps 744 mmHg 95%
    04:00 +15°C° 0 mm 1 mps 744 mmHg 96%
    05:00 +15°C° 0 mm 1 mps 744 mmHg 96%
    06:00 +16°C° 0 mm 2 mps 744 mmHg 92%
    07:00 +17°C° 0 mm 2 mps 744 mmHg 89%
    08:00 +19°C° 0 mm 2 mps 744 mmHg 85%
    09:00 +20°C° 0 mm 3 mps 744 mmHg 78%
    10:00 +21°C° 0 mm 3 mps 744 mmHg 72%
    11:00 +22°C° 0 mm 3 mps 744 mmHg 65%
    12:00 +24°C° 0.1 mm 3 mps 744 mmHg 65%
    13:00 +24°C° 0.1 mm 3 mps 743 mmHg 64%
    14:00 +24°C° 0.1 mm 3 mps 743 mmHg 63%
    15:00 +24°C° 0 mm 3 mps 743 mmHg 66%
    16:00 +24°C° 0 mm 2 mps 742 mmHg 68%
    17:00 +24°C° 0 mm 2 mps 742 mmHg 71%
    18:00 +21°C° 0 mm 2 mps 741 mmHg 76%
    19:00 +20°C° 0 mm 2 mps 741 mmHg 81%
    20:00 +19°C° 0 mm 3 mps 741 mmHg 86%
    21:00 +19°C° 0 mm 3 mps 740 mmHg 86%
    22:00 +19°C° 0 mm 3 mps 740 mmHg 87%
    23:00 +19°C° 0 mm 4 mps 739 mmHg 88%

    Tomorrow, 21 August, Tuesday

    Time Temperature Precipitation Wind Pressure Humidity
    00:00 +18°C° 0 mm 4 mps 739 mmHg 88%
    01:00 +18°C° 0 mm 4 mps 738 mmHg 88%
    02:00 +18°C° 0 mm 4 mps 737 mmHg 89%
    03:00 +18°C° 0.4 mm 4 mps 737 mmHg 90%
    04:00 +17°C° 0.4 mm 5 mps 736 mmHg 92%
    05:00 +17°C° 0.4 mm 5 mps 736 mmHg 94%
    06:00 +17°C° 0.3 mm 5 mps 736 mmHg 93%
    07:00 +17°C° 0.3 mm 5 mps 736 mmHg 93%
    08:00 +16°C° 0.3 mm 5 mps 736 mmHg 93%
    09:00 +17°C° 0.2 mm 5 mps 736 mmHg 85%
    10:00 +19°C° 0.2 mm 6 mps 737 mmHg 77%
    11:00 +20°C° 0.2 mm 6 mps 737 mmHg 69%
    12:00 +20°C° 0 mm 6 mps 738 mmHg 62%
    13:00 +20°C° 0 mm 6 mps 738 mmHg 54%
    14:00 +20°C° 0 mm 6 mps 738 mmHg 47%
    15:00 +20°C° 0 mm 6 mps 739 mmHg 49%
    16:00 +19°C° 0 mm 5 mps 739 mmHg 51%
    17:00 +19°C° 0 mm 5 mps 740 mmHg 53%
    18:00 +17°C° 0 mm 4 mps 740 mmHg 60%
    19:00 +14°C° 0 mm 3 mps 740 mmHg 67%
    20:00 +14°C° 0 mm 2 mps 741 mmHg 74%
    21:00 +13°C° 0 mm 2 mps 741 mmHg 76%
    22:00 +13°C° 0 mm 2 mps 742 mmHg 79%
    23:00 +11°C° 0 mm 3 mps 742 mmHg 81%

    Day after tomorrow, 22 August, Wednesday

    Time Temperature Precipitation Wind Pressure Humidity
    00:00 +11°C° 0 mm 3 mps 742 mmHg 82%
    01:00 +10°C° 0 mm 3 mps 743 mmHg 83%
    02:00 +10°C° 0 mm 3 mps 743 mmHg 84%
    03:00 +10°C° 0 mm 3 mps 743 mmHg 85%
    04:00 +9°C° 0 mm 3 mps 744 mmHg 86%
    05:00 +9°C° 0 mm 3 mps 744 mmHg 88%
    06:00 +10°C° 0 mm 3 mps 744 mmHg 82%
    07:00 +11°C° 0 mm 4 mps 745 mmHg 76%
    08:00 +12°C° 0 mm 4 mps 745 mmHg 69%
    09:00 +14°C° 0 mm 4 mps 746 mmHg 63%
    10:00 +15°C° 0 mm 4 mps 746 mmHg 56%
    11:00 +16°C° 0 mm 5 mps 746 mmHg 50%
    12:00 +16°C° 0 mm 5 mps 746 mmHg 48%
    13:00 +18°C° 0 mm 4 mps 746 mmHg 46%
    14:00 +18°C° 0 mm 4 mps 747 mmHg 44%
    15:00 +18°C° 0 mm 4 mps 747 mmHg 46%
    16:00 +18°C° 0 mm 4 mps 747 mmHg 48%
    17:00 +17°C° 0 mm 3 mps 747 mmHg 51%
    18:00 +14°C° 0 mm 3 mps 747 mmHg 59%
    19:00 +14°C° 0 mm 2 mps 748 mmHg 67%
    20:00 +12°C° 0 mm 1 mps 748 mmHg 75%
    21:00 +11°C° 0 mm 1 mps 748 mmHg 77%
    22:00 +10°C° 0 mm 1 mps 748 mmHg 80%
    23:00 +10°C° 0 mm 1 mps 749 mmHg 82%

    23 August, Thursday

    Time Temperature Precipitation Wind Pressure Humidity
    00:00 +9°C° 0 mm 1 mps 749 mmHg 83%
    01:00 +9°C° 0 mm 1 mps 749 mmHg 84%
    02:00 +9°C° 0 mm 1 mps 749 mmHg 85%
    03:00 +9°C° 0 mm 1 mps 749 mmHg 85%
    04:00 +8°C° 0 mm 1 mps 749 mmHg 86%
    05:00 +8°C° 0 mm 1 mps 749 mmHg 86%
    06:00 +10°C° 0 mm 1 mps 749 mmHg 78%
    07:00 +13°C° 0 mm 2 mps 749 mmHg 70%
    08:00 +15°C° 0 mm 2 mps 749 mmHg 61%
    09:00 +16°C° 0 mm 2 mps 749 mmHg 56%
    10:00 +18°C° 0 mm 2 mps 749 mmHg 50%
    11:00 +20°C° 0 mm 2 mps 749 mmHg 44%
    12:00 +20°C° 0 mm 3 mps 749 mmHg 43%
    13:00 +21°C° 0 mm 3 mps 748 mmHg 42%
    14:00 +21°C° 0 mm 3 mps 748 mmHg 41%
    15:00 +21°C° 0 mm 3 mps 748 mmHg 45%
    16:00 +20°C° 0 mm 2 mps 748 mmHg 50%
    17:00 +20°C° 0 mm 2 mps 747 mmHg 54%
    18:00 +18°C° 0 mm 2 mps 747 mmHg 62%
    19:00 +16°C° 0 mm 2 mps 747 mmHg 69%
    20:00 +13°C° 0 mm 2 mps 747 mmHg 77%
    21:00 +13°C° 0 mm 2 mps 747 mmHg 80%
    22:00 +12°C° 0 mm 2 mps 747 mmHg 83%
    23:00 +12°C° 0 mm 2 mps 747 mmHg 87%

    24 August, Friday

    Time Temperature Precipitation Wind Pressure Humidity
    00:00 +10°C° 0 mm 2 mps 747 mmHg 89%
    01:00 +10°C° 0 mm 2 mps 747 mmHg 90%
    02:00 +9°C° 0 mm 2 mps 747 mmHg 92%
    03:00 +9°C° 0 mm 2 mps 747 mmHg 93%
    04:00 +9°C° 0 mm 2 mps 747 mmHg 94%
    05:00 +9°C° 0 mm 2 mps 747 mmHg 94%
    06:00 +12°C° 0 mm 2 mps 747 mmHg 85%
    07:00 +14°C° 0 mm 2 mps 747 mmHg 77%
    08:00 +16°C° 0 mm 2 mps 747 mmHg 68%
    09:00 +18°C° 0 mm 2 mps 747 mmHg 62%
    10:00 +20°C° 0 mm 2 mps 747 mmHg 55%
    11:00 +22°C° 0 mm 3 mps 747 mmHg 49%
    12:00 +22°C° 0 mm 3 mps 746 mmHg 47%
    13:00 +24°C° 0 mm 3 mps 746 mmHg 45%
    14:00 +25°C° 0 mm 3 mps 746 mmHg 43%
    15:00 +24°C° 0 mm 2 mps 746 mmHg 48%
    16:00 +24°C° 0 mm 2 mps 746 mmHg 52%
    17:00 +23°C° 0 mm 2 mps 745 mmHg 56%
    18:00 +20°C° 0 mm 2 mps 745 mmHg 64%
    19:00 +18°C° 0 mm 2 mps 745 mmHg 71%
    20:00 +15°C° 0 mm 2 mps 745 mmHg 79%
    21:00 +15°C° 0 mm 2 mps 745 mmHg 81%
    22:00 +14°C° 0 mm 2 mps 745 mmHg 84%
    23:00 +14°C° 0 mm 2 mps 745 mmHg 87%

    25 August, Saturday

    Time Temperature Precipitation Wind Pressure Humidity
    00:00 +13°C° 0 mm 2 mps 745 mmHg 88%
    01:00 +13°C° 0 mm 2 mps 745 mmHg 89%
    02:00 +13°C° 0 mm 2 mps 745 mmHg 90%
    03:00 +13°C° 0 mm 2 mps 745 mmHg 90%
    04:00 +12°C° 0 mm 2 mps 745 mmHg 90%
    05:00 +12°C° 0 mm 2 mps 745 mmHg 90%
    06:00 +14°C° 0 mm 2 mps 745 mmHg 81%
    07:00 +16°C° 0 mm 3 mps 745 mmHg 73%
    08:00 +18°C° 0 mm 3 mps 745 mmHg 65%
    09:00 +20°C° 0 mm 3 mps 745 mmHg 58%
    10:00 +22°C° 0 mm 3 mps 745 mmHg 52%
    11:00 +25°C° 0 mm 3 mps 745 mmHg 46%
    12:00 +25°C° 0 mm 3 mps 745 mmHg 44%
    13:00 +26°C° 0 mm 3 mps 744 mmHg 43%
    14:00 +26°C° 0 mm 3 mps 744 mmHg 41%
    15:00 +26°C° 0 mm 3 mps 744 mmHg 46%
    16:00 +25°C° 0 mm 2 mps 744 mmHg 50%
    17:00 +24°C° 0 mm 2 mps 743 mmHg 55%
    18:00 +21°C° 0 mm 2 mps 743 mmHg 61%
    19:00 +19°C° 0 mm 2 mps 743 mmHg 68%
    20:00 +16°C° 0 mm 2 mps 743 mmHg 74%
    21:00 +16°C° 0 mm 2 mps 743 mmHg 77%
    22:00 +15°C° 0 mm 2 mps 743 mmHg 79%
    23:00 +14°C° 0 mm 2 mps 743 mmHg 82%
    Show more